SCP
-0 -0 -0 -0 -0 0 0 0 0 -0 -0 -0 -0 -0 -0 -0 -0 -0 -0 -0 -0 0 -0 -0 -0 -0 -0 -0 -0 -0 0 -0 -0 -0 -0 -0 -0 -0 -0 0 0 0 0
-0 -0 -0 -0 0 0 0 -0 -0 -0 -0 -0 -0 -0 -0 -0 -0 -0 -0 -0 -0 -0 -0 -0 -0 -0 -0 -0 -0 -0 -0 -0 0 -0 -0 -0 -0 0 -0 0 0 0 0
-0 -0 -0 -0 0 -0 -0 -0 -0 -0 -0 -0 -0 -0 -0 -0 -0 -0 -0 -0 0 0 -0 -0 -0 -0 -0 0 0 -0 -0 -0 -0 -0 -0 0 0 0 0 0 0 0 0
-0 -0 -0 0 -0 -0 -0 -0 -0 -0 -0 -0 -0 -0 -0 -0 -0 -0 -0 0 0 0 0 0 -0 0 0 0 -0 0 0 0 -0 -0 0 0 0 -0 0 0 0 0 0
-0 -0 -0 -0 -0 -0 -0 0 0 -0 -0 -0 -0 -0 -0 -0 -0 -0 0 0 0 0 0 0 0 -0 0 0 0 0 0 0 0 0 0 0 0 -0 -0 0 0 0 0
-0 -0 -0 -0 -0 -0 -0 -0 -0 -0 -0 -0 -0 -0 -0 -0 -0 -0 0 0 0 0 0 0 -0 0 0 0 0 0 -0 0 0 0 0 0 0 -0 -0 0 0 0 0
-0 -0 -0 0 -0 0 0 0 0 -0 0 -0 -0 -0 -0 -0 -0 -0 0 0 0 0 0 0 -0 -0 0 0 0 0 0 0 0 0 0 0 0 -0 0 -0 0 0 0
0 -0 0 0 0 0 0 0 0 0 -0 -0 -0 -0 0 -0 0 0 0 0 0 0 -0 -0 -0 0 0 -0 0 0 -0 -0 0 0 0 0 0 0 0 0 0 0 0
0 0 0 0 0 0 0 0 0 0 0 0 0 -0 0 0 0 0 -0 0 0 -0 0 -0 0 0 0 0 0 -0 0 0 0 0 0 0 0 0 -0 0 0 0 0
0 0 0 0 0 -0 -0 0 -0 -0 0 -0 0 -0 -0 -0 0 0 -0 0 0 0 0 0 -0 0 0 0 0 0 0 0 0 0 0 0 0 0 0 0 0 0 0
-0 -0 -0 -0 -0 -0 -0 0 0 0 0 -0 0 0 -0 -0 -0 0 0 0 0 0 0 0 0 0 0 0 0 0 0 0 0 0 0 0 0 0 0 0 0 0 0
-0 -0 -0 -0 -0 0 0 -0 -0 -0 -0 -0 -0 -0 -0 -0 -0 0 0 -0 0 0 0 0 0 0 0 0 0 0 0 0 0 0 0 0 0 0 0 0 0 0 0
-0 -0 -0 -0 -0 -0 -0 -0 -0 -0 -0 0 0 0 0 -0 0 0 0 0 0 0 0 0 0 0 0 0 0 0 0 0 0 0 0 0 0 0 0 0 0 0 0
0 -0 -0 -0 -0 -0 -0 -0 -0 -0 -0 0 0 0 0 -0 -0 0 0 0 0 0 0 0 0 0 0 0 0 0 0 0 0 0 0 0 1 1 0 1 1 0 0
0 0 -0 -0 -0 -0 -0 -0 -0 -0 -0 0 0 0 0 0 0 0 0 0 0 0 0 0 0 0 0 0 0 0 0 0 0 0 0 0 1 1 0 0 1 1 0
0 0 0 -0 0 -0 -0 -0 -0 -0 0 -0 0 0 0 0 0 0 0 0 0 0 0 0 0 0 0 0 0 0 0 0 0 0 0 0 1 1 1 1 1 0 0
-0 -0 0 -0 0 -0 -0 -0 -0 -0 -0 0 0 0 0 0 0 0 0 0 0 0 0 0 0 0 0 0 0 0 0 0 0 0 0 0 1 1 1 1 1 1 0
-0 -0 -0 -0 -0 -0 -0 0 -0 -0 -0 0 0 0 0 0 0 0 0 0 0 0 0 0 0 0 0 0 0 0 0 0 0 0 0 0 1 1 1 1 1 1 1
-0 -0 -0 -0 -0 -0 0 0 0 0 0 0 0 0 0 0 0 0 0 0 0 0 0 0 0 0 0 0 0 0 0 0 0 0 0 0 0 0 0 0 1 1 0
-0 -0 -0 -0 -0 0 0 0 0 0 0 -0 0 0 -0 -0 -0 0 0 0 0 0 0 0 0 0 0 0 0 0 0 0 0 0 0 0 0 0 0 0 0 0 0
-0 -0 0 -0 -0 -0 -0 0 0 0 -0 -0 0 0 0 -0 -0 0 0 0 0 0 0 0 0 0 0 0 0 0 0 0 0 0 0 0 0 0 0 0 0 0 0
-0 -0 -0 -0 -0 -0 0 -0 -0 0 0 0 0 0 -0 0 0 0 0 -0 0 0 0 0 0 0 0 0 0 0 0 0 0 0 0 0 0 0 0 0 0 0 0
-0 -0 -0 -0 -0 -0 -0 -0 0 0 0 -0 -0 -0 0 0 -0 -0 -0 -0 -0 0 0 0 0 0 0 0 0 0 0 0 0 0 0 0 0 0 0 0 0 0 0
0 0 -0 0 0 0 -0 0 0 0 0 0 -0 -0 0 0 0 0 0 -0 -0 0 0 0 0 0 -0 0 0 0 0 0 0 0 0 0 0 0 0 0 0 0 -0
0 0 0 0 0 0 0 0 0 -0 -0 0 -0 -0 -0 0 0 0 0 -0 -0 -0 0 0 -0 0 0 0 0 0 0 0 0 0 0 0 -0 -0 0 0 0 0 0
0 0 0 0 0 0 0 0 -0 0 -0 0 0 -0 -0 0 0 0 0 0 -0 -0 -0 0 0 0 0 0 0 0 0 0 0 0 0 0 0 0 0 0 0 0 0
Wind_Speed_500mb
38 39 37 37 37 35 32 27 28 29 30 31 30 31 33 34 37 35 36 38 38 38 38 39 41 46 49 53 53 50 47 47 46 45 46 45 41 39 38 37 37 36 36
46 42 39 34 30 30 29 28 27 25 26 28 29 30 30 31 32 32 33 37 38 40 40 40 45 47 47 52 51 49 48 44 41 40 41 40 37 36 38 36 37 34 34
47 43 39 34 32 30 28 27 28 29 28 27 29 30 31 32 32 33 35 35 36 39 39 45 49 53 52 53 53 52 49 43 36 36 37 40 35 37 37 37 37 34 33
49 46 41 36 32 31 28 27 29 28 29 29 30 31 32 30 33 35 35 36 36 39 38 46 50 45 46 43 38 39 37 38 36 32 34 37 37 37 33 34 36 38 35
48 43 40 35 32 31 30 27 27 28 30 29 31 31 32 33 34 34 35 38 36 37 41 45 43 42 40 36 41 39 34 31 27 28 32 34 36 30 31 30 32 33 33
49 43 39 34 31 30 29 27 27 30 30 29 29 30 34 37 34 36 38 41 40 40 41 42 44 40 37 34 39 32 28 22 24 25 28 31 31 30 27 28 28 29 32
48 40 36 32 30 29 29 28 28 29 31 29 28 30 32 33 33 35 40 43 40 40 40 42 40 35 38 36 35 29 25 18 16 24 28 31 29 28 28 27 28 27 28
43 38 34 31 29 27 28 29 29 29 30 31 30 30 30 32 33 36 38 41 37 34 38 40 38 32 36 34 30 23 19 21 19 21 26 29 24 28 25 25 27 28 27
34 32 30 29 27 29 30 30 30 31 31 31 31 29 31 34 35 35 36 38 36 33 35 39 38 37 34 31 24 27 29 25 19 17 21 24 25 27 23 24 26 24 23
32 30 28 28 28 31 32 33 32 32 32 32 32 32 33 35 35 36 40 41 34 35 37 40 44 35 29 26 21 23 22 19 17 18 18 21 23 24 22 22 22 23 22
37 32 32 31 30 32 33 34 36 37 39 41 39 36 34 39 38 38 43 42 41 41 38 40 40 38 31 24 17 15 11 16 14 15 15 17 20 20 18 19 20 20 17
42 36 30 35 32 32 35 38 40 37 42 36 37 38 38 38 39 38 41 42 33 34 40 44 39 36 32 30 16 3 8 12 12 15 14 15 16 16 17 18 17 16 14
38 41 45 43 37 37 44 45 40 46 37 30 32 37 39 37 35 37 36 39 40 35 41 35 26 24 21 14 13 10 11 17 17 19 18 15 14 14 16 15 13 12 11
42 44 41 38 37 36 39 40 44 38 36 34 32 32 32 35 33 32 33 38 34 24 27 32 34 27 19 17 14 15 14 26 30 26 22 18 17 16 15 13 12 13 13
50 46 37 33 28 35 38 39 38 40 35 31 25 25 23 30 25 18 19 21 17 32 32 27 26 24 22 16 23 19 16 17 25 28 29 26 18 15 13 12 14 15 15
51 50 39 29 22 34 30 31 34 37 31 25 19 25 22 19 16 18 15 29 27 38 35 33 26 26 19 23 24 11 8 17 18 17 22 24 26 19 19 19 19 18 17
53 50 46 36 31 35 33 33 37 38 36 31 20 21 15 16 20 19 25 27 30 29 33 27 26 25 20 19 12 13 9 1 4 10 14 17 21 24 24 24 24 22 21
58 47 49 37 37 39 31 29 36 36 28 25 18 16 15 12 15 17 17 27 24 29 26 28 24 17 20 14 17 8 5 4 5 4 8 15 20 23 26 28 26 24 22
55 45 43 40 44 38 31 28 29 33 24 21 19 18 16 15 10 13 8 16 18 20 26 23 14 19 16 15 8 7 7 7 11 8 12 16 19 22 20 22 24 23 20
51 38 33 46 45 40 31 37 36 37 24 23 25 16 17 22 17 12 12 12 10 15 17 20 14 10 12 6 3 11 11 10 11 4 15 18 19 22 20 17 17 17 17
50 38 36 36 44 40 39 40 31 27 27 22 16 14 16 18 22 25 21 20 15 15 17 19 16 11 6 5 2 4 7 10 16 13 5 6 11 14 18 19 14 11 11
52 43 39 32 39 36 34 33 28 26 28 22 22 16 16 17 15 30 21 32 20 24 23 19 12 15 14 8 3 1 4 8 11 13 7 10 6 8 9 17 21 17 10
52 45 40 35 29 38 38 35 30 27 23 25 24 21 15 14 16 18 23 28 19 22 22 19 14 10 10 12 5 1 1 3 6 7 7 9 8 4 3 7 10 15 13
53 45 47 44 34 37 39 32 30 24 24 22 20 22 19 14 15 15 19 22 25 19 23 23 16 13 14 8 6 6 8 9 3 3 10 5 7 13 12 2 7 4 8
56 46 42 50 42 38 47 34 25 24 31 22 21 23 23 18 15 12 20 23 21 24 23 30 20 13 13 9 4 4 8 17 16 2 5 10 13 13 9 4 2 3 6
59 50 44 46 47 45 49 37 30 26 20 27 26 22 23 23 16 15 16 16 18 21 27 24 21 17 16 9 6 8 11 15 18 19 15 10 13 10 11 7 4 9 11
Wind_Direction_500mb
152 139 137 133 126 126 125 114 111 112 114 114 114 116 115 113 110 108 107 109 109 107 105 108 103 104 104 105 104 104 102 103 98 100 98 96 92 94 90 92 97 95 92
149 144 142 136 129 129 128 121 115 113 114 117 119 117 117 116 113 112 111 111 110 113 107 112 111 108 110 111 108 106 101 99 100 100 101 96 91 97 89 92 97 99 94
147 144 140 135 130 130 127 116 114 112 109 113 116 119 118 125 121 117 115 112 111 114 110 114 114 110 107 109 110 104 96 89 96 101 101 98 96 95 94 90 95 98 92
142 137 136 137 135 130 125 118 115 109 109 110 118 121 119 120 122 121 118 115 112 115 116 119 118 115 111 108 102 98 98 87 92 100 108 103 98 92 95 98 92 93 91
141 140 141 139 131 127 124 116 109 105 109 111 117 121 123 125 124 124 119 115 107 113 123 123 118 111 109 105 101 105 99 87 91 103 109 100 98 93 93 97 103 95 93
144 147 143 136 131 127 125 118 114 111 110 111 113 120 125 126 125 125 122 117 105 111 124 128 121 112 106 106 108 93 88 94 93 107 110 101 98 99 93 92 96 105 98
146 149 140 137 135 130 126 122 116 113 111 109 114 122 124 122 125 127 126 121 108 107 123 130 124 115 105 104 104 92 80 77 105 113 108 104 97 95 91 88 95 98 100
147 146 143 141 136 130 125 121 118 115 114 116 116 118 123 125 128 126 127 127 111 110 126 131 124 121 116 112 110 90 89 97 111 111 108 105 102 101 98 93 94 97 100
146 147 145 142 137 128 123 123 122 122 117 115 114 121 129 126 124 124 124 124 105 109 124 138 132 129 121 121 116 96 98 91 93 99 108 106 104 101 90 91 92 95 96
146 141 141 135 130 127 127 127 126 117 113 111 115 124 129 123 122 121 121 115 103 110 128 141 142 137 127 124 117 99 93 76 90 94 99 107 105 101 93 93 95 94 90
137 126 127 126 126 127 130 128 120 117 107 104 108 123 126 123 120 114 122 120 107 107 118 129 140 137 132 126 120 111 67 55 71 86 88 99 103 105 99 91 89 87 88
135 125 126 127 124 127 132 124 113 117 110 111 108 116 120 121 125 128 126 121 113 112 129 126 132 141 145 148 145 157 110 45 78 85 80 89 93 97 90 86 85 86 85
131 123 120 114 115 127 134 126 119 115 115 114 113 116 124 124 132 141 127 117 112 120 115 122 137 139 137 133 146 143 83 49 70 75 72 73 80 84 83 81 83 82 77
136 128 133 121 118 129 140 127 120 116 123 117 112 119 127 129 133 128 125 119 126 120 135 105 123 129 107 95 177 150 103 71 70 73 75 77 75 75 77 78 79 75 69
145 137 143 126 121 130 131 124 128 123 131 124 117 110 125 136 132 137 113 125 110 133 135 126 113 116 107 89 99 112 111 85 69 72 73 69 71 76 79 78 73 70 68
148 143 141 147 143 152 145 123 123 133 129 135 132 111 136 127 142 135 83 122 124 136 139 137 127 124 115 99 118 108 110 101 71 73 70 61 62 78 83 83 79 73 70
157 154 149 150 154 155 139 140 128 131 132 142 145 146 152 139 132 121 126 123 133 128 144 124 135 134 124 125 120 90 65 255 116 82 61 62 59 73 80 81 79 75 71
163 159 160 164 156 149 142 152 151 140 141 151 165 162 150 148 136 128 112 124 129 118 121 132 130 136 143 150 133 143 62 79 119 120 77 75 73 78 74 73 73 75 74
165 163 171 175 170 161 156 153 159 165 156 167 170 168 169 156 166 157 166 133 131 126 119 136 123 135 137 146 155 226 202 191 53 74 86 93 84 75 80 69 70 76 76
168 164 148 166 178 171 159 147 148 165 171 153 160 185 182 179 177 182 175 137 145 143 127 145 148 153 159 186 235 242 250 226 236 41 76 85 80 77 76 68 61 80 83
170 159 159 161 165 176 168 166 171 173 174 177 191 197 187 193 192 193 189 176 155 169 167 161 160 171 166 146 136 232 241 246 248 260 269 59 54 61 65 58 62 76 66
168 171 176 174 174 183 186 177 179 183 180 182 194 188 185 174 196 194 193 184 181 182 181 170 159 143 117 106 178 249 242 237 255 255 214 214 22 44 37 53 72 62 61
177 181 188 192 193 191 185 192 196 198 192 176 180 174 179 162 180 203 190 184 190 186 189 180 171 165 144 158 117 70 57 177 171 212 217 186 230 302 17 52 66 62 58
192 194 198 196 198 190 191 190 194 203 213 199 187 178 185 194 188 188 194 193 197 208 205 198 180 179 181 178 126 109 73 74 36 191 224 228 213 236 270 272 56 38 19
195 200 208 203 196 197 195 197 201 213 200 211 188 186 184 193 184 192 194 208 205 210 202 190 184 177 213 189 129 121 81 101 62 15 242 225 202 210 214 227 282 16 295
198 202 202 205 202 199 201 200 199 196 180 207 204 191 188 204 206 194 190 187 212 225 207 204 199 193 196 194 137 85 99 73 64 62 44 250 240 221 203 216 254 316 308
Wind_Speed_850mb
38 39 37 37 37 35 32 27 28 29 30 31 30 31 33 34 37 35 36 38 38 38 38 39 41 46 49 53 53 50 47 47 46 45 46 45 41 39 38 37 37 36 36
46 42 39 34 30 30 29 28 27 25 26 28 29 30 30 31 32 32 33 37 38 40 40 40 45 47 47 52 51 49 48 44 41 40 41 40 37 36 38 36 37 34 34
47 43 39 34 32 30 28 27 28 29 28 27 29 30 31 32 32 33 35 35 36 39 39 45 49 53 52 53 53 52 49 43 36 36 37 40 35 37 37 37 37 34 33
49 46 41 36 32 31 28 27 29 28 29 29 30 31 32 30 33 35 35 36 36 39 38 46 50 45 46 43 38 39 37 38 36 32 34 37 37 37 33 34 36 38 35
48 43 40 35 32 31 30 27 27 28 30 29 31 31 32 33 34 34 35 38 36 37 41 45 43 42 40 36 41 39 34 31 27 28 32 34 36 30 31 30 32 33 33
49 43 39 34 31 30 29 27 27 30 30 29 29 30 34 37 34 36 38 41 40 40 41 42 44 40 37 34 39 32 28 22 24 25 28 31 31 30 27 28 28 29 32
48 40 36 32 30 29 29 28 28 29 31 29 28 30 32 33 33 35 40 43 40 40 40 42 40 35 38 36 35 29 25 18 16 24 28 31 29 28 28 27 28 27 28
43 38 34 31 29 27 28 29 29 29 30 31 30 30 30 32 33 36 38 41 37 34 38 40 38 32 36 34 30 23 19 21 19 21 26 29 24 28 25 25 27 28 27
34 32 30 29 27 29 30 30 30 31 31 31 31 29 31 34 35 35 36 38 36 33 35 39 38 37 34 31 24 27 29 25 19 17 21 24 25 27 23 24 26 24 23
32 30 28 28 28 31 32 33 32 32 32 32 32 32 33 35 35 36 40 41 34 35 37 40 44 35 29 26 21 23 22 19 17 18 18 21 23 24 22 22 22 23 22
37 32 32 31 30 32 33 34 36 37 39 41 39 36 34 39 38 38 43 42 41 41 38 40 40 38 31 24 17 15 11 16 14 15 15 17 20 20 18 19 20 20 17
42 36 30 35 32 32 35 38 40 37 42 36 37 38 38 38 39 38 41 42 33 34 40 44 39 36 32 30 16 3 8 12 12 15 14 15 16 16 17 18 17 16 14
38 41 45 43 37 37 44 45 40 46 37 30 32 37 39 37 35 37 36 39 40 35 41 35 26 24 21 14 13 10 11 17 17 19 18 15 14 14 16 15 13 12 11
42 44 41 38 37 36 39 40 44 38 36 34 32 32 32 35 33 32 33 38 34 24 27 32 34 27 19 17 14 15 14 26 30 26 22 18 17 16 15 13 12 13 13
50 46 37 33 28 35 38 39 38 40 35 31 25 25 23 30 25 18 19 21 17 32 32 27 26 24 22 16 23 19 16 17 25 28 29 26 18 15 13 12 14 15 15
51 50 39 29 22 34 30 31 34 37 31 25 19 25 22 19 16 18 15 29 27 38 35 33 26 26 19 23 24 11 8 17 18 17 22 24 26 19 19 19 19 18 17
53 50 46 36 31 35 33 33 37 38 36 31 20 21 15 16 20 19 25 27 30 29 33 27 26 25 20 19 12 13 9 1 4 10 14 17 21 24 24 24 24 22 21
58 47 49 37 37 39 31 29 36 36 28 25 18 16 15 12 15 17 17 27 24 29 26 28 24 17 20 14 17 8 5 4 5 4 8 15 20 23 26 28 26 24 22
55 45 43 40 44 38 31 28 29 33 24 21 19 18 16 15 10 13 8 16 18 20 26 23 14 19 16 15 8 7 7 7 11 8 12 16 19 22 20 22 24 23 20
51 38 33 46 45 40 31 37 36 37 24 23 25 16 17 22 17 12 12 12 10 15 17 20 14 10 12 6 3 11 11 10 11 4 15 18 19 22 20 17 17 17 17
50 38 36 36 44 40 39 40 31 27 27 22 16 14 16 18 22 25 21 20 15 15 17 19 16 11 6 5 2 4 7 10 16 13 5 6 11 14 18 19 14 11 11
52 43 39 32 39 36 34 33 28 26 28 22 22 16 16 17 15 30 21 32 20 24 23 19 12 15 14 8 3 1 4 8 11 13 7 10 6 8 9 17 21 17 10
52 45 40 35 29 38 38 35 30 27 23 25 24 21 15 14 16 18 23 28 19 22 22 19 14 10 10 12 5 1 1 3 6 7 7 9 8 4 3 7 10 15 13
53 45 47 44 34 37 39 32 30 24 24 22 20 22 19 14 15 15 19 22 25 19 23 23 16 13 14 8 6 6 8 9 3 3 10 5 7 13 12 2 7 4 8
56 46 42 50 42 38 47 34 25 24 31 22 21 23 23 18 15 12 20 23 21 24 23 30 20 13 13 9 4 4 8 17 16 2 5 10 13 13 9 4 2 3 6
59 50 44 46 47 45 49 37 30 26 20 27 26 22 23 23 16 15 16 16 18 21 27 24 21 17 16 9 6 8 11 15 18 19 15 10 13 10 11 7 4 9 11
Wind_Direction_850mb
152 139 137 133 126 126 125 114 111 112 114 114 114 116 115 113 110 108 107 109 109 107 105 108 103 104 104 105 104 104 102 103 98 100 98 96 92 94 90 92 97 95 92
149 144 142 136 129 129 128 121 115 113 114 117 119 117 117 116 113 112 111 111 110 113 107 112 111 108 110 111 108 106 101 99 100 100 101 96 91 97 89 92 97 99 94
147 144 140 135 130 130 127 116 114 112 109 113 116 119 118 125 121 117 115 112 111 114 110 114 114 110 107 109 110 104 96 89 96 101 101 98 96 95 94 90 95 98 92
142 137 136 137 135 130 125 118 115 109 109 110 118 121 119 120 122 121 118 115 112 115 116 119 118 115 111 108 102 98 98 87 92 100 108 103 98 92 95 98 92 93 91
141 140 141 139 131 127 124 116 109 105 109 111 117 121 123 125 124 124 119 115 107 113 123 123 118 111 109 105 101 105 99 87 91 103 109 100 98 93 93 97 103 95 93
144 147 143 136 131 127 125 118 114 111 110 111 113 120 125 126 125 125 122 117 105 111 124 128 121 112 106 106 108 93 88 94 93 107 110 101 98 99 93 92 96 105 98
146 149 140 137 135 130 126 122 116 113 111 109 114 122 124 122 125 127 126 121 108 107 123 130 124 115 105 104 104 92 80 77 105 113 108 104 97 95 91 88 95 98 100
147 146 143 141 136 130 125 121 118 115 114 116 116 118 123 125 128 126 127 127 111 110 126 131 124 121 116 112 110 90 89 97 111 111 108 105 102 101 98 93 94 97 100
146 147 145 142 137 128 123 123 122 122 117 115 114 121 129 126 124 124 124 124 105 109 124 138 132 129 121 121 116 96 98 91 93 99 108 106 104 101 90 91 92 95 96
146 141 141 135 130 127 127 127 126 117 113 111 115 124 129 123 122 121 121 115 103 110 128 141 142 137 127 124 117 99 93 76 90 94 99 107 105 101 93 93 95 94 90
137 126 127 126 126 127 130 128 120 117 107 104 108 123 126 123 120 114 122 120 107 107 118 129 140 137 132 126 120 111 67 55 71 86 88 99 103 105 99 91 89 87 88
135 125 126 127 124 127 132 124 113 117 110 111 108 116 120 121 125 128 126 121 113 112 129 126 132 141 145 148 145 157 110 45 78 85 80 89 93 97 90 86 85 86 85
131 123 120 114 115 127 134 126 119 115 115 114 113 116 124 124 132 141 127 117 112 120 115 122 137 139 137 133 146 143 83 49 70 75 72 73 80 84 83 81 83 82 77
136 128 133 121 118 129 140 127 120 116 123 117 112 119 127 129 133 128 125 119 126 120 135 105 123 129 107 95 177 150 103 71 70 73 75 77 75 75 77 78 79 75 69
145 137 143 126 121 130 131 124 128 123 131 124 117 110 125 136 132 137 113 125 110 133 135 126 113 116 107 89 99 112 111 85 69 72 73 69 71 76 79 78 73 70 68
148 143 141 147 143 152 145 123 123 133 129 135 132 111 136 127 142 135 83 122 124 136 139 137 127 124 115 99 118 108 110 101 71 73 70 61 62 78 83 83 79 73 70
157 154 149 150 154 155 139 140 128 131 132 142 145 146 152 139 132 121 126 123 133 128 144 124 135 134 124 125 120 90 65 255 116 82 61 62 59 73 80 81 79 75 71
163 159 160 164 156 149 142 152 151 140 141 151 165 162 150 148 136 128 112 124 129 118 121 132 130 136 143 150 133 143 62 79 119 120 77 75 73 78 74 73 73 75 74
165 163 171 175 170 161 156 153 159 165 156 167 170 168 169 156 166 157 166 133 131 126 119 136 123 135 137 146 155 226 202 191 53 74 86 93 84 75 80 69 70 76 76
168 164 148 166 178 171 159 147 148 165 171 153 160 185 182 179 177 182 175 137 145 143 127 145 148 153 159 186 235 242 250 226 236 41 76 85 80 77 76 68 61 80 83
170 159 159 161 165 176 168 166 171 173 174 177 191 197 187 193 192 193 189 176 155 169 167 161 160 171 166 146 136 232 241 246 248 260 269 59 54 61 65 58 62 76 66
168 171 176 174 174 183 186 177 179 183 180 182 194 188 185 174 196 194 193 184 181 182 181 170 159 143 117 106 178 249 242 237 255 255 214 214 22 44 37 53 72 62 61
177 181 188 192 193 191 185 192 196 198 192 176 180 174 179 162 180 203 190 184 190 186 189 180 171 165 144 158 117 70 57 177 171 212 217 186 230 302 17 52 66 62 58
192 194 198 196 198 190 191 190 194 203 213 199 187 178 185 194 188 188 194 193 197 208 205 198 180 179 181 178 126 109 73 74 36 191 224 228 213 236 270 272 56 38 19
195 200 208 203 196 197 195 197 201 213 200 211 188 186 184 193 184 192 194 208 205 210 202 190 184 177 213 189 129 121 81 101 62 15 242 225 202 210 214 227 282 16 295
198 202 202 205 202 199 201 200 199 196 180 207 204 191 188 204 206 194 190 187 212 225 207 204 199 193 196 194 137 85 99 73 64 62 44 250 240 221 203 216 254 316 308